FW6002 Weather Reports


time (UTC)temp
F
wind
direction
speed
knots
gust
knots
rain 1hr
in
rain 24hr
in
rain mn
in
humidity
%
barometer
mb
20260508052054 58 0 0.0 0.0 0.00 0.00 0.00 88 1015.5
20260508051609 58 0 0.0 0.0 0.00 0.00 0.00 87 1015.5
20260508051056 58 0 0.0 0.0 0.00 0.00 0.00 87 1015.7
20260508050556 58 0 0.0 0.0 0.00 0.00 0.00 87 1015.6
20260508050057 58 0 0.0 0.0 0.00 0.00 0.00 86 1015.8
20260508045556 59 0 0.0 0.0 0.00 0.00 0.00 86 1015.8
20260508045054 59 0 0.0 0.0 0.00 0.00 0.00 87 1015.9
20260508044606 59 0 0.0 0.0 0.00 0.00 0.00 87 1015.8
20260508044056 59 0 0.0 0.0 0.00 0.00 0.00 87 1015.8
20260508043555 59 0 0.0 0.0 0.00 0.00 0.00 86 1015.8
20260508043103 59 0 0.0 0.0 0.00 0.00 0.00 86 1016.0
20260508042555 59 0 0.0 0.0 0.00 0.00 0.00 86 1015.7
20260508042057 59 0 0.0 0.0 0.00 0.00 0.00 86 1015.8
20260508041559 59 0 0.0 0.0 0.00 0.00 0.00 85 1015.9
20260508041055 59 0 0.0 0.0 0.00 0.00 0.00 85 1015.8
20260508040555 59 0 0.0 0.0 0.00 0.00 0.00 85 1015.6
20260508040101 60 0 0.0 0.0 0.00 0.00 0.00 85 1015.9
20260508035555 60 0 0.0 0.0 0.00 0.00 0.00 85 1016.0
20260508035055 60 0 0.0 0.0 0.00 0.00 0.00 85 1015.8
20260508034606 60 0 0.0 0.0 0.00 0.00 0.00 84 1015.7
20260508034052 60 0 0.0 0.0 0.00 0.00 0.00 84 1015.8
20260508033552 60 0 0.0 0.0 0.00 0.00 0.00 84 1015.6
20260508033059 60 0 0.0 0.0 0.00 0.00 0.00 84 1015.6
20260508032558 60 0 0.0 0.0 0.00 0.00 0.00 84 1015.6
20260508032056 60 0 0.0 0.0 0.00 0.00 0.00 84 1015.3
20260508031610 60 0 0.0 0.0 0.00 0.00 0.00 84 1015.4
20260508031055 60 0 0.0 0.0 0.00 0.00 0.00 83 1015.3
20260508030555 60 0 0.0 0.0 0.00 0.00 0.00 83 1015.3
20260508030115 60 0 0.0 0.0 0.00 0.00 0.00 83 1015.3
20260508025555 60 0 0.0 0.0 0.00 0.00 0.00 83 1015.1
20260508025055 60 0 0.0 0.0 0.00 0.00 0.00 82 1014.9
20260508024607 61 0 0.0 0.0 0.00 0.00 0.00 82 1014.8
20260508024055 61 0 0.0 0.0 0.00 0.00 0.00 82 1014.8
20260508023558 61 0 0.0 0.0 0.00 0.00 0.00 82 1014.7
20260508023058 61 0 0.0 0.0 0.00 0.00 0.00 82 1014.9
20260508022554 61 0 0.0 0.0 0.00 0.00 0.00 82 1014.7
20260508022055 61 0 0.0 0.0 0.00 0.00 0.00 82 1014.8
20260508021618 62 0 0.0 0.0 0.00 0.00 0.00 81 1014.7
20260508021056 62 0 0.0 0.0 0.00 0.00 0.00 81 1014.6
20260508020554 61 0 0.0 0.0 0.00 0.00 0.00 81 1014.6
20260508020054 61 0 0.0 0.0 0.00 0.00 0.00 81 1014.7
20260508015555 61 0 0.0 0.0 0.00 0.00 0.00 80 1014.4
20260508015055 62 0 0.0 0.0 0.00 0.00 0.00 80 1014.6
20260508014603 62 0 0.0 0.0 0.00 0.00 0.00 80 1014.6
20260508014055 62 0 0.0 0.0 0.00 0.00 0.00 79 1014.7
20260508013555 62 0 0.0 0.0 0.00 0.00 0.00 79 1014.7
20260508013106 62 0 0.0 0.0 0.00 0.00 0.00 80 1014.5
20260508012555 63 0 0.0 0.0 0.00 0.00 0.00 79 1014.7
20260508012057 63 0 0.0 0.0 0.00 0.00 0.00 79 1014.7
20260508011603 63 0 0.0 0.0 0.00 0.00 0.00 78 1015.0
20260508011056 63 0 0.0 0.0 0.00 0.00 0.00 78 1015.1
20260508010554 63 0 0.0 0.0 0.00 0.00 0.00 78 1015.0
20260508010057 64 0 0.0 0.0 0.00 0.00 0.00 77 1014.8
20260508005557 64 0 0.0 0.0 0.00 0.00 0.00 77 1014.9
20260508005100 64 0 0.0 0.0 0.00 0.00 0.00 76 1014.8
20260508004559 64 0 0.0 0.0 0.00 0.00 0.00 76 1014.9
20260508004055 64 0 0.0 0.0 0.00 0.00 0.00 75 1014.7
20260508003555 65 0 0.0 0.0 0.00 0.00 0.00 73 1015.0
20260508003104 66 0 0.0 0.9 0.00 0.00 0.00 70 1015.0
20260508002555 66 0 0.0 0.9 0.00 0.00 0.00 70 1015.0
20260508002055 66 0 0.0 0.9 0.00 0.00 0.00 68 1014.8
20260508001601 66 0 0.0 0.0 0.00 0.00 0.00 69 1014.9
20260508001055 67 0 0.0 0.0 0.00 0.00 0.00 69 1014.9
20260508000555 66 0 0.0 0.0 0.00 0.00 0.00 69 1015.0
20260508000057 66 0 0.0 0.0 0.00 0.00 0.00 70 1014.9
20260507235554 66 0 0.0 0.0 0.00 0.00 0.00 68 1015.0
20260507235054 66 0 0.0 0.9 0.00 0.00 0.00 67 1015.1
20260507234557 67 0 0.0 1.7 0.00 0.00 0.00 67 1015.2
20260507234056 67 0 0.0 1.7 0.00 0.00 0.00 66 1015.4
20260507233555 67 0 0.0 1.7 0.00 0.00 0.00 66 1015.5
20260507233056 67 0 0.0 0.9 0.00 0.00 0.00 65 1015.5
20260507232552 67 220 0.0 1.7 0.00 0.00 0.00 65 1015.5
20260507232054 67 0 0.0 1.7 0.00 0.00 0.00 65 1015.5
20260507231559 67 0 0.0 1.7 0.00 0.00 0.00 64 1015.4
20260507231055 67 0 0.0 2.6 0.00 0.00 0.00 65 1015.3
20260507230555 67 0 0.0 2.6 0.00 0.00 0.00 65 1015.4
20260507230057 68 0 0.0 2.6 0.00 0.00 0.00 66 1015.4
20260507225556 68 0 0.0 1.7 0.00 0.02 0.00 64 1015.6
20260507225055 68 135 0.0 1.7 0.00 0.02 0.00 64 1015.3
20260507224601 68 0 0.0 1.7 0.00 0.02 0.00 65 1015.4
20260507224054 68 0 0.0 1.7 0.00 0.02 0.00 65 1015.5
20260507223558 68 0 0.0 0.9 0.00 0.02 0.00 63 1015.4
20260507223052 68 0 0.0 2.6 0.00 0.02 0.00 65 1015.4
20260507222557 68 0 0.0 2.6 0.00 0.02 0.00 64 1015.3
20260507222054 68 0 0.0 1.7 0.00 0.02 0.00 66 1015.2
20260507221556 68 32 0.0 1.7 0.00 0.02 0.00 64 1015.6
20260507221055 68 0 0.0 2.6 0.00 0.02 0.00 64 1015.8
20260507220554 68 0 0.0 2.6 0.00 0.02 0.00 66 1015.8
20260507220057 68 0 0.0 2.6 0.00 0.02 0.00 65 1015.9
20260507215557 68 88 0.0 2.6 0.00 0.02 0.00 64 1016.0
20260507215054 68 0 0.0 2.6 0.00 0.02 0.00 63 1015.8
20260507214559 68 27 0.9 2.6 0.00 0.02 0.00 63 1016.0
20260507214054 68 59 0.0 1.7 0.00 0.02 0.00 63 1015.9
20260507213554 68 175 0.0 1.7 0.00 0.02 0.00 63 1015.8
20260507213056 68 126 0.0 3.5 0.00 0.02 0.00 62 1016.0
20260507212554 69 0 0.0 3.5 0.00 0.02 0.00 63 1016.0
20260507212055 69 72 0.0 3.5 0.00 0.02 0.00 62 1016.3
20260507211554 68 206 0.0 2.6 0.00 0.02 0.00 63 1016.1
20260507211054 68 34 0.0 2.6 0.00 0.02 0.00 64 1016.3
20260507210556 68 0 0.0 3.5 0.00 0.02 0.00 64 1016.3
20260507210120 69 65 0.0 3.5 0.00 0.02 0.00 64 1016.5
20260507205556 69 217 0.9 3.5 0.00 0.02 0.00 63 1016.6
20260507205056 69 0 0.0 5.2 0.00 0.02 0.00 64 1016.5
20260507204600 69 53 0.0 5.2 0.00 0.02 0.00 63 1016.7
20260507204059 69 53 0.0 2.6 0.00 0.02 0.00 63 1016.9
20260507203556 69 0 0.0 2.6 0.00 0.02 0.00 61 1016.8
20260507203102 69 97 0.9 2.6 0.00 0.02 0.00 60 1016.8
20260507202555 70 0 0.0 4.3 0.00 0.02 0.00 62 1016.5
20260507202058 70 153 0.9 4.3 0.00 0.02 0.00 62 1016.6
20260507201554 69 130 0.9 4.3 0.00 0.02 0.00 61 1016.7
20260507201059 70 0 0.0 1.7 0.00 0.02 0.00 62 1016.8
20260507200556 70 158 0.0 2.6 0.00 0.02 0.00 61 1016.7
20260507200106 70 0 0.0 2.6 0.00 0.02 0.00 60 1016.6
20260507195558 70 0 0.0 1.7 0.00 0.02 0.00 62 1016.4
20260507195056 70 0 0.0 2.6 0.00 0.02 0.00 62 1016.5
20260507194557 70 0 0.0 2.6 0.00 0.02 0.00 64 1016.6
20260507194059 69 208 0.0 2.6 0.00 0.02 0.00 59 1016.5
20260507193557 70 313 0.0 2.6 0.00 0.02 0.00 62 1016.7
20260507193132 70 0 0.0 2.6 0.00 0.02 0.00 59 1016.6
20260507192555 70 320 0.0 1.7 0.00 0.02 0.00 61 1016.7
20260507192100 70 0 0.0 1.7 0.00 0.02 0.00 62 1016.9
20260507191600 69 0 0.0 2.6 0.00 0.02 0.00 61 1017.0
20260507191100 69 0 0.9 2.6 0.00 0.02 0.00 59 1016.9
20260507190556 70 225 0.9 2.6 0.00 0.02 0.00 60 1017.3
20260507190055 70 0 0.0 2.6 0.00 0.02 0.00 60 1017.4
20260507185556 71 0 0.0 3.5 0.00 0.02 0.00 63 1017.6
20260507185056 71 302 0.0 3.5 0.00 0.02 0.00 61 1017.8
20260507184558 71 157 0.0 1.7 0.00 0.02 0.00 61 1018.0
20260507184100 71 328 0.0 1.7 0.00 0.02 0.00 61 1018.0
20260507183555 71 0 0.0 1.7 0.00 0.02 0.00 59 1018.1
20260507183103 72 154 0.0 1.7 0.00 0.02 0.00 61 1018.2
20260507182556 72 0 0.0 1.7 0.00 0.02 0.00 61 1018.0
20260507182055 71 0 0.0 2.6 0.00 0.02 0.00 62 1018.0
20260507181556 69 169 0.9 2.6 0.00 0.02 0.00 61 1018.1
20260507181055 70 244 0.0 2.6 0.00 0.02 0.00 62 1018.0
20260507180558 70 184 0.9 3.5 0.00 0.02 0.00 60 1018.0
20260507180119 71 0 0.9 3.5 0.00 0.02 0.00 58 1018.0
20260507175559 71 43 0.0 2.6 0.00 0.02 0.00 62 1017.9
20260507175054 71 150 0.0 2.6 0.00 0.02 0.00 68 1018.1
20260507174604 71 317 0.0 2.6 0.00 0.02 0.00 66 1018.0
20260507174056 71 0 0.0 2.6 0.00 0.02 0.00 66 1018.1
20260507173552 69 0 0.0 3.5 0.00 0.02 0.00 66 1017.9
20260507173131 68 0 0.0 4.3 0.00 0.02 0.00 64 1018.1
20260507172554 68 287 0.9 4.3 0.00 0.02 0.00 64 1018.2
20260507172051 69 202 0.0 3.5 0.00 0.02 0.00 64 1018.2
20260507171601 70 93 0.0 3.5 0.00 0.02 0.00 68 1018.2
20260507171055 68 254 0.0 1.7 0.00 0.02 0.00 72 1018.4
20260507170557 67 273 0.0 3.5 0.00 0.02 0.00 66 1018.5
20260507170057 67 0 0.0 3.5 0.00 0.02 0.00 69 1018.7
20260507165554 66 0 0.0 2.6 0.00 0.02 0.00 66 1018.7
20260507165055 67 352 0.0 1.7 0.00 0.02 0.00 69 1018.8
20260507164605 67 280 0.0 1.7 0.00 0.02 0.00 68 1019.1
20260507164055 67 0 0.0 1.7 0.00 0.02 0.00 68 1019.2
20260507163554 67 328 0.0 1.7 0.00 0.02 0.00 68 1019.2
20260507163054 66 28 0.0 2.6 0.00 0.02 0.00 69 1019.3
20260507162557 65 0 0.0 2.6 0.00 0.02 0.00 71 1019.6
20260507162056 66 175 0.0 3.5 0.00 0.02 0.00 71 1019.5
20260507161608 66 0 0.0 3.5 0.00 0.02 0.00 70 1019.7
20260507161054 65 259 0.0 2.6 0.00 0.02 0.00 71 1019.6
20260507160554 65 213 0.0 2.6 0.00 0.02 0.00 71 1019.5
20260507160116 66 198 0.0 3.5 0.00 0.02 0.00 73 1019.5
20260507155553 66 0 0.0 3.5 0.00 0.02 0.00 72 1019.5
20260507155054 66 163 0.0 1.7 0.00 0.02 0.00 75 1019.5
20260507154556 65 0 0.0 1.7 0.00 0.02 0.00 73 1019.5
20260507154054 64 0 0.0 1.7 0.00 0.02 0.00 75 1019.5
20260507153552 64 0 0.0 2.6 0.00 0.02 0.00 75 1019.7
20260507153055 65 173 0.0 2.6 0.00 0.02 0.00 73 1019.6
20260507152555 65 31 0.0 1.7 0.00 0.02 0.00 75 1019.5
20260507152055 65 0 0.0 1.7 0.00 0.02 0.00 74 1019.5
20260507151558 64 0 0.0 4.3 0.00 0.02 0.00 79 1019.5
20260507151056 62 174 0.0 4.3 0.00 0.02 0.00 79 1019.7
20260507150554 62 220 0.0 2.6 0.00 0.02 0.00 76 1019.6
20260507150054 62 0 0.0 1.7 0.00 0.02 0.00 76 1019.7
20260507145554 63 0 0.0 1.7 0.00 0.05 0.00 76 1019.9
20260507145054 63 0 0.0 2.6 0.00 0.05 0.00 77 1019.7
20260507144604 63 174 0.0 2.6 0.00 0.05 0.00 78 1019.7
20260507144056 62 15 0.0 2.6 0.00 0.05 0.00 79 1019.7
20260507143555 62 0 0.0 2.6 0.00 0.05 0.00 80 1019.7
20260507143100 61 0 0.0 1.7 0.00 0.05 0.00 82 1019.8
20260507142556 60 0 0.0 1.7 0.00 0.05 0.00 84 1020.0
20260507142056 60 0 0.0 1.7 0.00 0.05 0.00 83 1019.9
20260507141619 60 0 0.0 1.7 0.00 0.05 0.00 84 1020.1
20260507141055 59 0 0.0 1.7 0.00 0.05 0.00 85 1020.1
20260507140557 58 0 0.0 1.7 0.00 0.05 0.00 85 1020.2
20260507140110 58 65 0.0 1.7 0.00 0.05 0.00 84 1020.0
20260507135600 58 0 0.0 1.7 0.00 0.05 0.00 85 1020.1
20260507135056 57 0 0.0 0.9 0.00 0.05 0.00 86 1020.3
20260507134603 57 0 0.0 0.9 0.00 0.05 0.00 87 1020.2
20260507134056 56 0 0.0 1.7 0.00 0.05 0.00 87 1020.2
20260507133556 56 0 0.0 1.7 0.00 0.05 0.00 87 1020.2
20260507133056 56 315 0.0 1.7 0.00 0.05 0.00 88 1020.2
20260507132555 55 0 0.0 1.7 0.00 0.05 0.00 89 1020.0
20260507132055 55 0 0.0 1.7 0.00 0.05 0.00 89 1020.3
20260507131556 54 0 0.0 0.9 0.00 0.05 0.00 89 1020.3
20260507131057 54 0 0.0 0.9 0.00 0.05 0.00 89 1020.2
20260507130556 54 0 0.0 0.9 0.00 0.05 0.00 89 1020.2
20260507130053 54 0 0.0 0.0 0.00 0.05 0.00 90 1020.2
20260507125556 54 0 0.0 0.0 0.00 0.05 0.00 89 1020.2
20260507125056 54 0 0.0 0.0 0.00 0.05 0.00 90 1020.2
20260507124554 54 0 0.0 0.0 0.00 0.05 0.00 90 1020.1
20260507124056 53 0 0.0 0.9 0.00 0.05 0.00 90 1020.0
20260507123556 53 0 0.0 0.9 0.00 0.05 0.00 90 1020.0
20260507123057 53 0 0.0 0.0 0.00 0.05 0.00 90 1020.2
20260507122556 52 0 0.0 0.0 0.00 0.05 0.00 90 1020.3
20260507122056 52 0 0.0 0.9 0.00 0.05 0.00 90 1020.3
20260507121557 52 0 0.0 0.9 0.00 0.05 0.00 89 1020.3
20260507121057 52 0 0.0 0.0 0.00 0.05 0.00 89 1020.3
20260507120555 52 0 0.0 0.0 0.00 0.05 0.00 89 1020.1
20260507120056 52 0 0.0 0.0 0.00 0.05 0.00 89 1020.1
20260507115555 52 0 0.0 0.0 0.00 0.05 0.00 89 1020.3
20260507115054 52 0 0.0 0.0 0.00 0.05 0.00 89 1020.2
20260507114603 52 0 0.0 0.0 0.00 0.05 0.00 89 1020.4
20260507114056 52 0 0.0 0.0 0.00 0.05 0.00 89 1020.4
20260507113557 52 0 0.0 0.0 0.00 0.05 0.00 89 1020.4
20260507113055 52 0 0.0 1.7 0.00 0.05 0.00 89 1020.3
20260507112557 52 0 0.0 1.7 0.00 0.05 0.00 89 1020.2
20260507112056 52 0 0.0 0.9 0.00 0.05 0.00 89 1020.2
20260507111601 52 0 0.0 0.9 0.00 0.05 0.00 89 1020.1
20260507111058 52 0 0.0 0.9 0.00 0.05 0.00 89 1020.0
20260507110554 52 0 0.0 1.7 0.00 0.05 0.00 89 1020.0
20260507110055 52 0 0.0 1.7 0.00 0.05 0.00 89 1019.8
20260507105553 52 17 0.0 0.9 0.00 0.05 0.00 89 1019.8
20260507105053 52 0 0.0 1.7 0.00 0.05 0.00 89 1019.8
20260507104554 52 0 0.0 1.7 0.00 0.05 0.00 89 1019.7
20260507104056 52 0 0.0 1.7 0.00 0.05 0.00 89 1019.6
20260507103556 52 0 0.0 0.9 0.00 0.05 0.00 89 1019.5
20260507103054 53 0 0.0 1.7 0.00 0.05 0.00 89 1019.4
20260507102553 53 0 0.0 1.7 0.00 0.05 0.00 88 1019.3
20260507102055 53 0 0.0 0.9 0.00 0.05 0.00 88 1019.2
20260507101611 53 0 0.0 0.9 0.00 0.05 0.00 88 1018.9
20260507101053 53 16 0.0 0.9 0.00 0.05 0.00 88 1018.8
20260507100554 53 0 0.0 0.9 0.00 0.05 0.00 89 1018.9
20260507100055 53 0 0.0 0.9 0.00 0.05 0.00 88 1018.9
20260507095554 53 0 0.0 1.7 0.00 0.05 0.00 88 1018.6
20260507095054 53 0 0.0 1.7 0.00 0.05 0.00 88 1018.8
20260507094556 53 304 0.0 1.7 0.00 0.05 0.00 88 1018.6
20260507094053 53 0 0.0 2.6 0.00 0.05 0.00 88 1018.4
20260507093556 53 0 0.0 2.6 0.00 0.05 0.00 88 1018.2
20260507093057 53 0 0.0 2.6 0.00 0.05 0.00 88 1018.1
20260507092554 53 0 0.0 1.7 0.00 0.05 0.00 88 1018.1
20260507092055 54 0 0.0 1.7 0.00 0.05 0.00 88 1018.2
20260507091556 54 0 0.0 1.7 0.00 0.05 0.00 88 1017.9
20260507091056 54 0 0.0 1.7 0.00 0.05 0.00 88 1018.0
20260507090555 54 0 0.0 0.0 0.00 0.05 0.00 88 1018.1
20260507090110 54 0 0.0 0.9 0.00 0.05 0.00 88 1017.9
20260507085556 54 0 0.0 0.9 0.00 0.05 0.00 88 1018.0
20260507085054 54 0 0.0 0.0 0.00 0.05 0.00 88 1017.9
20260507084555 54 0 0.0 0.0 0.00 0.05 0.00 88 1017.9
20260507084056 55 0 0.0 0.0 0.00 0.05 0.00 88 1017.9
20260507083556 55 0 0.0 0.0 0.00 0.05 0.00 88 1017.9
20260507083054 55 0 0.0 0.0 0.00 0.05 0.00 88 1017.9
20260507082558 55 0 0.0 0.9 0.00 0.05 0.00 88 1017.7
20260507082055 55 0 0.0 0.9 0.00 0.05 0.00 88 1017.6
20260507081557 55 0 0.0 0.9 0.00 0.05 0.00 88 1017.5
20260507081056 55 0 0.0 0.9 0.00 0.05 0.00 88 1017.4
20260507080556 55 0 0.0 1.7 0.00 0.05 0.00 88 1017.4
20260507075557 55 0 0.0 1.7 0.00 0.05 0.00 88 1017.0
20260507075056 55 19 0.0 1.7 0.00 0.05 0.00 89 1017.1
20260507074558 55 0 0.0 1.7 0.00 0.05 0.00 89 1017.2
20260507074055 55 0 0.0 0.9 0.00 0.05 0.00 89 1017.5
20260507073555 55 188 0.0 0.9 0.00 0.05 0.00 89 1017.5
20260507073053 55 35 0.0 0.9 0.00 0.05 0.00 89 1017.2
20260507072556 55 0 0.0 0.9 0.00 0.05 0.00 89 1017.4
20260507072055 56 0 0.0 0.9 0.00 0.05 0.00 89 1017.2
20260507071604 56 280 0.0 0.9 0.00 0.05 0.00 89 1017.3
20260507071056 56 0 0.0 0.9 0.00 0.05 0.00 89 1016.8
20260507070556 56 0 0.0 0.9 0.00 0.05 0.00 89 1017.1
20260507065556 56 0 0.0 0.0 0.00 0.05 0.00 89 1016.8
20260507065055 56 0 0.0 0.0 0.00 0.05 0.00 89 1016.8
20260507064618 56 0 0.0 0.9 0.00 0.05 0.00 89 1016.8
20260507064055 56 0 0.0 0.9 0.00 0.05 0.00 89 1016.8
20260507063556 56 0 0.0 0.9 0.00 0.05 0.00 89 1016.7
20260507063056 56 0 0.0 1.7 0.00 0.05 0.00 89 1016.4
20260507062553 56 0 0.0 1.7 0.00 0.05 0.00 89 1016.5
20260507062054 56 0 0.0 1.7 0.00 0.05 0.00 90 1016.3
20260507061605 56 0 0.0 1.7 0.00 0.05 0.00 89 1016.5
20260507061053 56 0 0.0 0.9 0.00 0.05 0.00 90 1016.5
20260507060556 56 298 0.0 0.9 0.00 0.05 0.00 90 1016.4
20260507060059 56 0 0.0 0.9 0.00 0.05 0.00 90 1016.4
20260507055556 56 0 0.0 0.9 0.00 0.05 0.00 90 1016.4
20260507055054 56 0 0.0 0.9 0.00 0.05 0.00 90 1016.4
20260507054610 56 0 0.0 2.6 0.00 0.05 0.00 90 1016.5
20260507054055 56 0 0.0 2.6 0.00 0.05 0.00 90 1016.4
20260507053556 56 300 0.0 2.6 0.00 0.05 0.00 90 1016.4
20260507053054 56 0 0.0 1.7 0.00 0.05 0.00 90 1016.5
20260507052555 56 0 0.0 0.9 0.00 0.05 0.00 90 1016.5